Back to catalog

STARLINK-4060

AliveCommunicationsVLEO
NORAD 53267·PAYLOAD·🇺🇸 United States

Launched Jul 24, 2022 from Cape Canaveral Space Force Station

Loading…

Next Passes (next 24 hours)

TLE

FreshSource: CelesTrak SupGP

Epoch: Sep 14, 2026, 14:06 UTC

1 53267C 22086AB  26257.58798611 -.00030654  00000+0 -90582-3 0  2571
2 53267  53.1596  53.0197 0001147  83.6658 312.1269 15.34401036    10

Track STARLINK-4060 in real time with AllMySat

Download on the App Store